Flag for Poland Weather past 2 weeks in Gdynia, Poland

Now
45 °F

Passing clouds.


Feels Like: 37 °F
Forecast: 44 / 46 °F
Wind: 17 mph from West

Location: Gdansk-Rebiechowo

Current Time: Dec 23, 2014 at 12:48:40 AM

Latest Report: Dec 23, 2014 at 12:00 AM


Visibility: N/A

Pressure: 29.53 "Hg

Humidity: 87%

Dew point: 41 °F

Location of GdyniaLocation

Historic Weather in Gdynia — Graph

°F

Gdynia temperature yesterday

Maximum temperature yesterday: 48 °F (at 12:00 PM)
Minimum temperature yesterday: 39 °F (at 12:00 AM)
Average temperature yesterday: 44 °F

Past Weeks' High & Low Weather Summary

 TemperatureHumidityPressure
High52 °F (Dec 19, 9:30 AM)100% (Dec 7, 11:30 PM)30.30 "Hg (Dec 7, 11:30 PM)
Low28 °F (Dec 14, 11:30 PM)61% (Dec 17, 1:30 PM)29.24 "Hg (Dec 12, 10:30 PM)
Average38 °F89%29.73 "Hg
* Reported Dec 7 11:00 PM — Dec 22 11:30 PM, Gdynia, Weather by CustomWeather, © 2014

Note: Actual official high and low records may vary slightly from our data, if they occured in-between our weather recording intervals... More about our weather records

Advertising

Gdynia weather history for previous 24 hours

 ConditionsComfort  
Time TempWeatherWind HumidityBarometerVisibility
11:30 PM
Dec 22
45 °FPassing clouds.17 mph87%29.53 "HgN/A
11:00 PM45 °FPassing clouds.18 mph87%29.53 "HgN/A
10:30 PM45 °FPassing clouds.20 mph87%29.53 "HgN/A
10:00 PM45 °FPartly cloudy.20 mph87%29.53 "HgN/A
9:30 PM45 °FPassing clouds.21 mph87%29.50 "HgN/A
9:00 PM45 °FPassing clouds.23 mph87%29.50 "HgN/A
8:30 PM46 °FPassing clouds.21 mph87%29.50 "HgN/A
8:00 PM45 °FPassing clouds.18 mph93%29.50 "HgN/A
7:30 PM45 °FPassing clouds.21 mph93%29.47 "HgN/A
7:00 PM45 °FPassing clouds.20 mph93%29.47 "HgN/A
6:30 PM45 °FLight rain. Passing clouds.16 mph93%29.47 "HgN/A
6:00 PM46 °FLight rain. Passing clouds.20 mph87%29.45 "HgN/A
5:30 PM46 °FLight rain. Passing clouds.21 mph93%29.45 "HgN/A
5:00 PM46 °FRain. Fog.22 mph93%29.45 "Hg3 mi
4:30 PM48 °FRain. Fog.17 mph94%29.42 "Hg3 mi
4:00 PM48 °FRain. Fog.21 mph94%29.39 "Hg3 mi
3:30 PM48 °FRain. Partly cloudy.12 mph94%29.39 "Hg5 mi
3:00 PM46 °FRain. Broken clouds.9 mph100%29.39 "Hg5 mi
2:30 PM46 °FRain. Broken clouds.8 mph100%29.42 "Hg5 mi
2:00 PM48 °FRain. Partly sunny.10 mph94%29.42 "Hg5 mi
1:30 PM48 °FRain. Partly sunny.13 mph94%29.45 "Hg5 mi
1:00 PM46 °FLight rain. Partly sunny.13 mph100%29.45 "Hg5 mi
12:30 PM46 °FLight rain. Partly sunny.15 mph100%29.45 "Hg5 mi
12:00 PM48 °FDrizzle. Partly sunny.18 mph94%29.47 "Hg5 mi
11:30 AM46 °FDrizzle. Fog.18 mph100%29.47 "Hg2 mi
11:00 AM46 °FLight rain. Partly sunny.18 mph100%29.47 "Hg4 mi
10:30 AM46 °FLight rain. Partly sunny.21 mph93%29.47 "Hg4 mi
10:00 AM46 °FLight rain. Partly sunny.21 mph93%29.47 "Hg5 mi
9:30 AM46 °FLight rain. Partly sunny.18 mph93%29.47 "Hg5 mi
9:00 AM46 °FLight rain. Partly sunny.18 mph93%29.45 "HgN/A
8:30 AM46 °FLight rain. Partly sunny.22 mph93%29.47 "HgN/A
8:00 AM45 °FLight rain. Passing clouds.20 mph100%29.45 "HgN/A
7:30 AM45 °FLight rain. Passing clouds.15 mph93%29.45 "HgN/A
7:00 AM43 °FLight rain. Passing clouds.14 mph100%29.45 "HgN/A
6:30 AM43 °FLight rain. Passing clouds.14 mph93%29.47 "HgN/A
6:00 AM43 °FLight rain. Passing clouds.12 mph93%29.47 "HgN/A
5:30 AM41 °FLight rain. Passing clouds.13 mph93%29.50 "HgN/A
4:30 AM39 °FLight rain. Passing clouds.12 mph93%29.53 "HgN/A
4:00 AM39 °FRain. Passing clouds.13 mph93%29.56 "HgN/A
3:30 AM39 °FRain. Passing clouds.12 mph93%29.59 "HgN/A
3:00 AM39 °FLight rain. Passing clouds.13 mph93%29.62 "HgN/A
2:30 AM39 °FLight rain. Passing clouds.13 mph93%29.65 "HgN/A
2:00 AM39 °FPassing clouds.13 mph93%29.65 "HgN/A
1:30 AM39 °FLight rain. Passing clouds.13 mph93%29.68 "HgN/A
1:00 AM39 °FLight rain. Passing clouds.14 mph93%29.71 "Hg6 mi
12:30 AM39 °FLight rain. Passing clouds.12 mph93%29.71 "Hg4 mi
12:00 AM39 °FLight rain. Passing clouds.12 mph93%29.74 "Hg4 mi
Weather by CustomWeather, © 2014

See weather overviewHow to use our weather pages